Location: Okie-Tex Star Party
(36.8978°N, 102.9520°W)
Time: 11:24:44
(UTC-05:00)

Amateur Radio Satellites - All Passes

Search period start: 02 August 2015 10:54
Search period end: 03 August 2015 10:54
Location: Okie-Tex Star Party, 36.8978°N, 102.9520°W

Satellite Date Start Highest point End Downlink Frequencies (MHz)
Time Altitude Azimuth
Cosmos 2499 02 Aug 11:06:23 11:10:09 13° 300° (WNW) 11:13:27 435.465 / 435.565
ZACube-1 02 Aug 11:13:45 11:17:57 36° 97° (E) 11:22:12 437.345
COMPASS 1 02 Aug 11:14:20 11:18:24 46° 286° (WNW) 11:22:24 437.405
POLYITAN 1 02 Aug 11:14:31 11:16:55 15° 68° (ENE) 11:19:28 437.675
BUGSAT 1 02 Aug 11:28:54 11:30:32 13° 67° (ENE) 11:32:22 437.445
POPSAT HIP 1 02 Aug 11:30:08 11:33:21 22° 70° (ENE) 11:36:40 437.405
DELFI C3 02 Aug 11:31:21 11:35:23 62° 100° (E) 11:39:21 145.870
SEEDS 02 Aug 11:32:05 11:35:31 23° 289° (WNW) 11:38:51 437.485
UNISAT 6 02 Aug 11:32:18 11:36:37 69° 75° (ENE) 11:41:03 437.425
FUNcube-1 02 Aug 11:34:37 11:39:08 61° 100° (E) 11:43:40 145.935
CINEMA 3 02 Aug 11:36:46 11:41:05 35° 287° (WNW) 11:45:29 145.822/145.860
CUTE 1.7 + AOD 2 02 Aug 11:37:35 11:40:28 17° 291° (WNW) 11:43:11 437.475
QB50P2 02 Aug 11:37:44 11:41:19 28° 71° (ENE) 11:44:59 145.880/145.840
DOVE 4 02 Aug 11:38:02 11:41:02 17° 291° (WNW) 11:43:57 437.250
UWE-3 02 Aug 11:40:16 11:44:55 85° 281° (W) 11:49:35 435.000/436.395/437.385
M-CUBED/EXP-1 PRIME 02 Aug 11:45:07 11:47:07 13° 267° (W) 11:48:56 437.505
Oscar 11 02 Aug 11:45:23 11:49:41 59° 285° (WNW) 11:53:57 145.826/435.025
SO-50 02 Aug 11:45:32 11:48:34 16° 317° (NW) 11:51:31 436.795
CANX-2 02 Aug 11:47:02 11:48:58 12° 293° (WNW) 11:50:41 2200.000
UKube-1 02 Aug 11:47:44 11:50:45 19° 94° (E) 11:53:53 .
HUMSAT D 02 Aug 11:49:49 11:53:47 35° 97° (E) 11:57:47 437.325/437.525
YUBILEINY 02 Aug 11:50:36 11:58:27 36° 72° (ENE) 12:06:27 435.215
AIST 2 02 Aug 11:51:02 11:54:04 19° 249° (WSW) 11:56:58 435.215
O/OREOS (USA 219) 02 Aug 11:51:22 11:55:23 30° 62° (ENE) 11:59:26 437.305
AAUSAT CUBESAT 2 02 Aug 11:55:28 11:58:32 19° 290° (WNW) 12:01:26 437.432
CUBEBUG 2 02 Aug 11:58:48 12:03:13 42° 287° (WNW) 12:07:40 437.445
AISAT 02 Aug 11:58:57 12:01:48 17° 93° (E) 12:04:47 437.250
HO-68 02 Aug 11:59:05 12:05:00 28° 297° (WNW) 12:10:45 435.675
DUCHIFAT 1 02 Aug 12:00:15 12:04:16 48° 74° (ENE) 12:08:20 145.980
QB50P1 02 Aug 12:04:29 12:08:35 58° 75° (ENE) 12:12:44 145.935-145.965
NANOSAT C BR1 02 Aug 12:05:09 12:09:15 58° 75° (ENE) 12:13:23 145.865
CUBEBUG 1 02 Aug 12:10:02 12:11:29 12° 90° (E) 12:13:12 437.445
TIGRISAT 02 Aug 12:15:26 12:19:29 38° 263° (W) 12:23:37 435.000
DX 1 02 Aug 12:17:02 12:21:13 46° 99° (E) 12:25:24 434.975-435.025
ANTELSAT 02 Aug 12:17:55 12:21:54 35° 263° (W) 12:25:58 437.575/2403.000
Cosmos 2491 02 Aug 12:22:47 12:29:55 31° 86° (E) 12:37:19 435.465 / 435.565
VELOX 1 02 Aug 12:36:30 12:40:43 44° 99° (E) 12:44:56 145.980
POLYITAN 1 02 Aug 12:48:34 12:52:30 39° 262° (W) 12:56:28 437.675
50 SAT 02 Aug 12:50:38 12:54:38 87° 101° (E) 12:58:36 437.505
ZACube-1 02 Aug 12:50:43 12:54:04 20° 291° (WNW) 12:57:19 437.345
ESTCUBE 1 02 Aug 12:53:32 12:57:53 48° 99° (E) 13:02:14 437.505/2401.250
AIST 1 02 Aug 12:54:17 12:58:32 56° 94° (E) 13:02:47
BUGSAT 1 02 Aug 13:01:46 13:05:39 45° 261° (W) 13:09:32 437.445
POPSAT HIP 1 02 Aug 13:05:35 13:09:07 26° 265° (W) 13:12:37 437.405
FUNcube-1 02 Aug 13:13:00 13:15:00 12° 294° (WNW) 13:16:45 145.935
QB50P2 02 Aug 13:14:03 13:17:14 20° 266° (W) 13:20:20 145.880/145.840
UKube-1 02 Aug 13:23:05 13:26:58 32° 289° (WNW) 13:30:47 .
HUMSAT D 02 Aug 13:26:15 13:29:16 18° 291° (WNW) 13:32:10 437.325/437.525
O/OREOS (USA 219) 02 Aug 13:31:00 13:34:41 23° 257° (WSW) 13:38:16 437.305
AISAT 02 Aug 13:34:26 13:38:32 37° 288° (WNW) 13:42:35 437.250
DUCHIFAT 1 02 Aug 13:38:51 13:40:26 11° 270° (W) 13:41:44 145.980
CUBEBUG 1 02 Aug 13:44:01 13:48:13 51° 286° (WNW) 13:52:25 437.445
YUBILEINY 02 Aug 13:47:11 13:55:29 46° 271° (W) 14:03:39 435.215
DX 1 02 Aug 13:54:42 13:57:07 14° 293° (WNW) 13:59:20 434.975-435.025
Oscar 19 02 Aug 13:55:41 14:00:17 36° 71° (ENE) 14:04:59 437.125/150
SPROUT 02 Aug 14:14:17 14:18:36 82° 283° (WNW) 14:22:55 437.525
VELOX 1 02 Aug 14:14:17 14:16:56 15° 293° (WNW) 14:19:25 145.980
Cosmos 2491 02 Aug 14:17:55 14:26:26 53° 283° (WNW) 14:34:54 435.465 / 435.565
TISAT 1 02 Aug 14:20:22 14:24:34 68° 101° (E) 14:28:46 437.305
Cosmos 2504 02 Aug 14:22:55 14:30:48 42° 75° (ENE) 14:38:55 435.465 / 435.565
SWISSCUBE 02 Aug 14:23:35 14:25:03 12° 89° (E) 14:26:50 437.505
ESTCUBE 1 02 Aug 14:31:51 14:34:23 15° 293° (WNW) 14:36:44 437.505/2401.250
AIST 1 02 Aug 14:35:35 14:36:39 11° 291° (WNW) 14:37:26
ITUPSAT 1 02 Aug 14:43:52 14:47:02 18° 92° (E) 14:50:21 437.325
Gurwin Techsat 1B 02 Aug 15:06:03 15:11:09 51° 73° (ENE) 15:16:20 435.225
AO-7 02 Aug 15:06:58 15:11:55 18° 55° (NE) 15:17:15 29.400- 29.500
ITAMSAT 1 02 Aug 15:19:23 15:24:31 62° 74° (ENE) 15:29:41 435.822/435.867
Oscar 19 02 Aug 15:35:39 15:39:45 23° 266° (W) 15:43:46 437.125/150
BEESAT 02 Aug 15:37:49 15:42:36 72° 102° (ESE) 15:47:21 436.000
SWISSCUBE 02 Aug 15:58:41 16:03:25 62° 285° (WNW) 16:08:05 437.505
JAS-2 02 Aug 16:01:20 16:07:16 60° 72° (ENE) 16:14:03 435.910
DANDE 02 Aug 16:04:38 16:08:20 33° 80° (E) 16:13:11 436.750
KKS-1 02 Aug 16:05:55 16:09:18 22° 94° (E) 16:12:49 437.445
HORYU 2 02 Aug 16:08:30 16:11:55 23° 69° (ENE) 16:15:26 437.375
CUSAT 1 02 Aug 16:13:16 16:17:45 72° 81° (E) 16:23:45 437.405
Cosmos 2504 02 Aug 16:15:13 16:22:57 39° 272° (W) 16:30:40 435.465 / 435.565
ITUPSAT 1 02 Aug 16:20:38 16:25:08 41° 288° (WNW) 16:29:34 437.325
GONETS M04 02 Aug 16:34:36 16:38:25 14° 60° (ENE) 16:42:54
Gurwin Techsat 1B 02 Aug 16:47:56 16:51:30 17° 269° (W) 16:54:52 435.225
AO-7 02 Aug 16:55:18 17:03:40 85° 73° (ENE) 17:12:06 29.400- 29.500
ITAMSAT 1 02 Aug 17:01:44 17:04:32 14° 270° (W) 17:07:01 435.822/435.867
MOZHAYETS 4 02 Aug 17:09:08 17:10:53 12° 89° (E) 17:12:54
STARS 02 Aug 17:10:43 17:15:09 71° 102° (ESE) 17:19:33 437.465
BEESAT 02 Aug 17:18:15 17:19:54 11° 296° (WNW) 17:21:17 436.000
KKS-1 02 Aug 17:42:03 17:45:59 30° 289° (WNW) 17:49:51 437.445
HORYU 2 02 Aug 17:44:29 17:48:25 29° 264° (W) 17:52:18 437.375
DANDE 02 Aug 17:48:22 17:51:26 18° 263° (W) 17:54:54 436.750
JAS-2 02 Aug 17:48:39 17:53:05 20° 273° (W) 17:57:34 435.910
PCSat 02 Aug 17:53:41 17:56:28 14° 44° (NE) 17:59:29 145.827
CUSAT 1 02 Aug 17:59:07 18:00:21 11° 266° (W) 18:01:15 437.405
VERMONT LUNAR 02 Aug 18:19:07 18:22:06 38° 152° (SSE) 18:25:04 437.305
GONETS M04 02 Aug 18:28:15 18:37:00 79° 82° (E) 18:45:47
SO-50 02 Aug 18:36:42 18:41:13 35° 52° (NE) 18:45:41 436.795
CUTE-I 02 Aug 18:38:28 18:43:06 32° 69° (ENE) 18:47:50 437.470
MOZHAYETS 4 02 Aug 18:44:00 18:48:32 56° 285° (WNW) 18:53:01
STARS 02 Aug 18:50:31 18:51:04 10° 295° (WNW) 18:51:22 437.465
AO-7 02 Aug 18:52:07 18:57:33 17° 270° (W) 19:02:27 29.400- 29.500
Cosmos 2499 02 Aug 19:01:28 19:09:06 33° 71° (ENE) 19:16:59 435.465 / 435.565
PHONESAT 2.4 02 Aug 19:01:28 19:02:48 12° 143° (SE) 19:04:15 2401.200-2431.200
CUBESAT XI-V 02 Aug 19:06:31 19:09:40 19° 92° (E) 19:12:59 437.345
Cubesat XI-IV 02 Aug 19:22:10 19:27:32 83° 76° (ENE) 19:32:56 437.490
PCSat 02 Aug 19:35:15 19:40:42 86° 241° (WSW) 19:46:07 145.827
BRITE-PL 02 Aug 19:45:14 19:47:17 14° 69° (ENE) 19:49:29 437.365/2234.400
VERMONT LUNAR 02 Aug 19:55:38 19:58:46 54° 348° (NNW) 20:01:54 437.305
ISS 02 Aug 20:13:29 20:14:55 13° 129° (SE) 20:16:29 145.825
STRAND 1 02 Aug 20:16:06 20:20:32 30° 96° (E) 20:25:02 437.568
SO-50 02 Aug 20:17:31 20:21:38 26° 248° (WSW) 20:25:34 436.795
CUTE-I 02 Aug 20:18:30 20:23:10 29° 265° (W) 20:27:46 437.470
GONETS M04 02 Aug 20:27:15 20:32:59 19° 278° (W) 20:38:14
PHONESAT 2.4 02 Aug 20:36:53 20:40:21 61° 156° (SSE) 20:43:49 2401.200-2431.200
HO-68 02 Aug 20:37:15 20:43:19 32° 65° (ENE) 20:49:31 435.675
CUBESAT XI-V 02 Aug 20:43:02 20:47:16 36° 288° (WNW) 20:51:26 437.345
SEEDS 02 Aug 20:47:19 20:49:32 14° 68° (ENE) 20:51:56 437.485
CUTE 1.7 + AOD 2 02 Aug 20:52:04 20:55:11 21° 70° (ENE) 20:58:25 437.475
Cosmos 2499 02 Aug 20:54:08 21:02:37 52° 269° (W) 21:11:01 435.465 / 435.565
CANX-2 02 Aug 21:00:10 21:03:47 28° 72° (ENE) 21:07:30 2200.000
CINEMA 3 02 Aug 21:01:38 21:03:34 13° 67° (ENE) 21:05:43 145.822/145.860
PRISM 02 Aug 21:03:06 21:07:13 83° 101° (ESE) 21:11:18 437.425
DOVE 4 02 Aug 21:03:18 21:07:01 33° 73° (ENE) 21:10:46 437.250
Cubesat XI-IV 02 Aug 21:07:33 21:08:24 10° 273° (W) 21:08:48 437.490
AAUSAT CUBESAT 2 02 Aug 21:08:49 21:11:25 17° 69° (ENE) 21:14:10 437.432
BRITE-PL 02 Aug 21:21:20 21:25:34 44° 261° (W) 21:29:36 437.365/2234.400
GOMX 1 02 Aug 21:22:57 21:27:12 78° 258° (WSW) 21:31:22 467.674
RS-15 02 Aug 21:30:32 21:40:23 44° 109° (ESE) 21:50:41 29.354- 29.394
VERMONT LUNAR 02 Aug 21:32:42 21:35:46 42° 5° (N) 21:38:49 437.305
ISS 02 Aug 21:47:52 21:51:03 52° 322° (NW) 21:54:15 145.825
STRAND 1 02 Aug 21:55:20 21:59:41 28° 291° (WNW) 22:03:55 437.568
COMPASS 1 02 Aug 22:02:37 22:06:50 86° 78° (ENE) 22:11:05 437.405
ZACube-1 02 Aug 22:08:20 22:11:25 21° 69° (ENE) 22:14:40 437.345
PHONESAT 2.4 02 Aug 22:14:58 22:18:24 49° 352° (N) 22:21:49 2401.200-2431.200
DELFI C3 02 Aug 22:16:25 22:19:51 27° 72° (ENE) 22:23:21 145.870
SEEDS 02 Aug 22:20:55 22:24:59 43° 262° (W) 22:29:04 437.485
HO-68 02 Aug 22:24:04 22:30:52 45° 261° (W) 22:37:39 435.675
CUTE 1.7 + AOD 2 02 Aug 22:27:09 22:30:55 30° 264° (W) 22:34:41 437.475
FUNcube-1 02 Aug 22:28:25 22:32:10 33° 72° (ENE) 22:36:04 145.935
UWE-3 02 Aug 22:35:14 22:39:19 56° 75° (ENE) 22:43:32 435.000/436.395/437.385
CANX-2 02 Aug 22:36:23 22:39:44 21° 267° (W) 22:42:59 2200.000
CINEMA 3 02 Aug 22:36:27 22:40:25 44° 262° (W) 22:44:27 145.822/145.860
Oscar 11 02 Aug 22:37:27 22:41:47 79° 76° (ENE) 22:46:09 145.826/435.025
Cosmos 2491 02 Aug 22:37:59 22:40:33 12° 58° (ENE) 22:43:52 435.465 / 435.565
HUMSAT D 02 Aug 22:40:09 22:43:00 19° 69° (ENE) 22:46:01 437.325/437.525
UKube-1 02 Aug 22:41:38 22:43:33 13° 66° (ENE) 22:45:40 .
DOVE 4 02 Aug 22:42:17 22:44:58 16° 268° (W) 22:47:28 437.250
AAUSAT CUBESAT 2 02 Aug 22:42:51 22:46:45 36° 263° (W) 22:50:39 437.432
CUBEBUG 2 02 Aug 22:54:40 22:58:48 63° 260° (W) 23:03:03 437.445
AISAT 02 Aug 22:55:55 22:57:39 12° 66° (ENE) 22:59:37 437.250
BEESAT 3 02 Aug 23:01:06 23:02:55 13° 110° (ESE) 23:04:57 437.485
AIST 1 02 Aug 23:06:14 23:07:17 11° 69° (ENE) 23:08:35
VERMONT LUNAR 02 Aug 23:09:26 23:12:37 78° 201° (SSW) 23:15:46 437.305
DX 1 02 Aug 23:10:37 23:14:23 30° 71° (ENE) 23:18:13 434.975-435.025
M-CUBED/EXP-1 PRIME 02 Aug 23:25:27 23:30:11 58° 105° (ESE) 23:34:44 437.505
ISS 02 Aug 23:27:09 23:28:07 11° 341° (NNW) 23:29:01 145.825
UNISAT 6 02 Aug 23:27:20 23:30:31 18° 92° (E) 23:33:52 437.425
VELOX 1 02 Aug 23:32:04 23:35:52 30° 71° (ENE) 23:39:45 145.980
50 SAT 02 Aug 23:32:13 23:35:41 32° 73° (ENE) 23:39:14 437.505
RS-15 02 Aug 23:42:03 23:52:38 51° 311° (NW) 00:03:32 29.354- 29.394
ZACube-1 02 Aug 23:43:59 23:47:38 28° 265° (W) 23:51:19 437.345
ESTCUBE 1 02 Aug 23:50:59 23:55:04 34° 72° (ENE) 23:59:11 437.505/2401.250
DELFI C3 02 Aug 23:51:54 23:54:56 20° 267° (W) 23:57:53 145.870
AUBIESAT-1 02 Aug 23:52:57 23:57:43 83° 290° (WNW) 00:02:16 437.475
PHONESAT 2.4 02 Aug 23:53:13 23:56:40 51° 9° (N) 00:00:06 2401.200-2431.200
QB50P1 02 Aug 23:54:06 23:55:18 11° 90° (E) 23:56:48 145.935-145.965
NANOSAT C BR1 02 Aug 23:54:34 23:55:44 11° 90° (E) 23:57:10 145.865
BEESAT 2 02 Aug 23:59:29 00:03:25 47° 116° (ESE) 00:07:24 435.950
FUNcube-1 03 Aug 00:05:49 00:08:39 17° 268° (W) 00:11:23 145.935
TIGRISAT 03 Aug 00:08:48 00:13:23 50° 99° (E) 00:17:58 435.000
AIST 2 03 Aug 00:09:46 00:11:24 12° 109° (ESE) 00:13:17 435.215
ANTELSAT 03 Aug 00:11:25 00:16:03 56° 100° (E) 00:20:41 437.575/2403.000
HUMSAT D 03 Aug 00:14:51 00:18:33 31° 264° (W) 00:22:16 437.325/437.525
UKube-1 03 Aug 00:15:05 00:19:17 51° 260° (W) 00:23:30 .
AISAT 03 Aug 00:29:28 00:33:48 55° 260° (W) 00:38:07 437.250
Cosmos 2491 03 Aug 00:30:43 00:39:25 71° 81° (E) 00:48:07 435.465 / 435.565
POLYITAN 1 03 Aug 00:35:57 00:39:55 37° 98° (E) 00:43:56 437.675
BEESAT 3 03 Aug 00:36:34 00:40:29 47° 304° (WNW) 00:44:28 437.485
CUBEBUG 1 03 Aug 00:37:26 00:41:49 85° 258° (WSW) 00:46:10 437.445
AIST 1 03 Aug 00:41:13 00:45:21 51° 266° (W) 00:49:28
BUGSAT 1 03 Aug 00:46:11 00:49:42 28° 96° (E) 00:53:16 437.445
VERMONT LUNAR 03 Aug 00:47:09 00:49:00 14° 215° (SW) 00:50:46 437.305
DX 1 03 Aug 00:47:23 00:50:41 20° 266° (W) 00:53:52 434.975-435.025
YUBILEINY 03 Aug 00:48:32 00:56:31 44° 89° (E) 01:04:41 435.215
POPSAT HIP 1 03 Aug 00:52:02 00:56:14 57° 100° (E) 01:00:28 437.405
QB50P2 03 Aug 01:00:10 01:04:27 76° 102° (ESE) 01:08:43 145.880/145.840
M-CUBED/EXP-1 PRIME 03 Aug 01:01:35 01:04:28 16° 299° (WNW) 01:07:07 437.505
UNISAT 6 03 Aug 01:03:03 01:07:28 40° 287° (WNW) 01:11:50 437.425
SPROUT 03 Aug 01:05:59 01:10:08 55° 75° (ENE) 01:14:20 437.525
50 SAT 03 Aug 01:08:01 01:10:24 15° 268° (W) 01:12:38 437.505
VELOX 1 03 Aug 01:09:03 01:12:28 21° 266° (W) 01:15:46 145.980
TISAT 1 03 Aug 01:10:18 01:14:07 36° 73° (ENE) 01:17:58 437.305
DUCHIFAT 1 03 Aug 01:22:30 01:26:43 63° 284° (WNW) 01:30:55 145.980
QB50P1 03 Aug 01:27:23 01:31:33 52° 285° (WNW) 01:35:41 145.935-145.965
NANOSAT C BR1 03 Aug 01:27:47 01:31:56 52° 286° (WNW) 01:36:05 145.865
SWISSCUBE 03 Aug 01:28:38 01:30:09 12° 64° (ENE) 01:31:56 437.505
ESTCUBE 1 03 Aug 01:28:40 01:32:02 20° 267° (W) 01:35:16 437.505/2401.250
PHONESAT 2.4 03 Aug 01:31:14 01:34:40 53° 206° (SSW) 01:38:04 2401.200-2431.200
BEESAT 2 03 Aug 01:39:07 01:41:45 16° 313° (NW) 01:44:17 435.950
AIST 2 03 Aug 01:45:24 01:49:34 54° 303° (WNW) 01:53:45 435.215
TIGRISAT 03 Aug 01:46:53 01:49:44 16° 293° (WNW) 01:52:24 435.000
ITUPSAT 1 03 Aug 01:48:56 01:52:00 18° 67° (ENE) 01:55:13 437.325
ANTELSAT 03 Aug 01:49:49 01:52:23 14° 294° (WNW) 01:54:44 437.575/2403.000
O/OREOS (USA 219) 03 Aug 02:00:59 02:05:18 51° 107° (ESE) 02:09:41 437.305
RS-15 03 Aug 02:01:33 02:08:49 18° 341° (NNW) 02:15:58 29.354- 29.394
Oscar 19 03 Aug 02:10:40 02:13:31 15° 90° (E) 02:16:37 437.125/150
POLYITAN 1 03 Aug 02:12:43 02:15:33 17° 292° (WNW) 02:18:14 437.675
BUGSAT 1 03 Aug 02:21:58 02:25:01 20° 290° (WNW) 02:28:00 437.445
Cosmos 2491 03 Aug 02:29:17 02:35:33 21° 277° (W) 02:41:22 435.465 / 435.565
POPSAT HIP 1 03 Aug 02:30:09 02:31:40 11° 294° (WNW) 02:32:57 437.405
BEESAT 03 Aug 02:41:51 02:46:35 63° 74° (ENE) 02:51:20 436.000
ISS 03 Aug 02:42:15 02:43:34 12° 21° (NNE) 02:44:55 145.825
SPROUT 03 Aug 02:45:33 02:46:37 11° 271° (W) 02:47:25 437.525
YUBILEINY 03 Aug 02:45:33 02:53:29 37° 287° (WNW) 03:01:20 435.215
TISAT 1 03 Aug 02:47:25 02:50:03 16° 268° (W) 02:52:30 437.305
Cosmos 2504 03 Aug 02:51:51 02:57:40 29° 86° (E) 03:04:01 435.465 / 435.565
SWISSCUBE 03 Aug 03:02:41 03:07:28 71° 258° (WSW) 03:12:17 437.505
KKS-1 03 Aug 03:02:50 03:05:24 16° 67° (ENE) 03:08:09 437.445
JAS-2 03 Aug 03:17:05 03:18:36 11° 82° (E) 03:20:53 435.910
ITUPSAT 1 03 Aug 03:24:55 03:29:33 46° 261° (W) 03:34:11 437.325
Gurwin Techsat 1B 03 Aug 03:25:09 03:29:22 24° 94° (E) 03:33:43 435.225
ITAMSAT 1 03 Aug 03:35:10 03:39:24 26° 95° (E) 03:43:44 435.822/435.867
O/OREOS (USA 219) 03 Aug 03:42:34 03:45:07 14° 305° (NW) 03:47:30 437.305
Oscar 19 03 Aug 03:48:12 03:53:17 56° 287° (WNW) 03:58:21 437.125/150
STARS 03 Aug 04:05:19 04:09:28 45° 73° (ENE) 04:13:39 437.465
ISS 03 Aug 04:17:18 04:20:33 64° 39° (NE) 04:23:47 145.825
RS-15 03 Aug 04:20:41 04:27:38 17° 17° (NNE) 04:35:04 29.354- 29.394
BEESAT 03 Aug 04:23:05 04:24:55 12° 271° (W) 04:26:27 436.000
KKS-1 03 Aug 04:37:30 04:41:43 43° 261° (W) 04:45:56 437.445
Cosmos 2504 03 Aug 04:42:46 04:49:34 45° 284° (WNW) 04:56:47 435.465 / 435.565
JUGNU 03 Aug 04:47:32 04:50:35 14° 177° (S) 04:53:38 437.505
JAS-2 03 Aug 04:57:14 05:05:08 71° 101° (E) 05:12:44 435.910
AO-7 03 Aug 05:00:13 05:07:24 33° 96° (E) 05:14:43 29.400- 29.500
Gurwin Techsat 1B 03 Aug 05:04:35 05:09:28 37° 289° (WNW) 05:14:16 435.225
ITAMSAT 1 03 Aug 05:14:19 05:18:57 33° 290° (WNW) 05:23:30 435.822/435.867
DANDE 03 Aug 05:16:00 05:19:08 42° 98° (E) 05:21:47 436.750
CUSAT 1 03 Aug 05:20:45 05:23:37 70° 277° (W) 05:26:14 437.405
GONETS M04 03 Aug 05:33:59 05:38:45 17° 81° (E) 05:44:05
HORYU 2 03 Aug 05:37:12 05:41:41 61° 101° (ESE) 05:46:08 437.375
MOZHAYETS 4 03 Aug 05:43:10 05:47:48 79° 257° (WSW) 05:52:29
STARS 03 Aug 05:43:52 05:46:12 14° 269° (W) 05:48:19 437.465
ISS 03 Aug 05:56:00 05:56:37 10° 232° (SW) 05:57:06 145.825
CUBESAT XI-V 03 Aug 06:08:29 06:11:06 15° 67° (ENE) 06:13:55 437.345
RS-15 03 Aug 06:33:09 06:44:17 47° 48° (NE) 06:55:55 29.354- 29.394
JUGNU 03 Aug 06:36:04 06:38:48 13° 187° (S) 06:41:29 437.505
JAS-2 03 Aug 06:43:25 06:49:30 24° 297° (WNW) 06:55:14 435.910
SRMSAT 03 Aug 06:43:31 06:46:33 14° 177° (S) 06:49:35 437.500
AO-7 03 Aug 06:52:29 07:00:30 52° 293° (WNW) 07:08:22 29.400- 29.500
CUTE-I 03 Aug 06:59:06 07:01:46 14° 90° (E) 07:04:44 437.470
HORYU 2 03 Aug 07:16:00 07:17:51 12° 295° (WNW) 07:19:28 437.375
GONETS M04 03 Aug 07:25:55 07:34:40 84° 278° (W) 07:43:24
STRAND 1 03 Aug 07:29:42 07:34:19 35° 71° (ENE) 07:39:00 437.568
Cosmos 2499 03 Aug 07:36:50 07:42:20 24° 84° (E) 07:48:25 435.465 / 435.565
Cubesat XI-IV 03 Aug 07:42:04 07:47:02 39° 98° (E) 07:52:00 437.490
CUBESAT XI-V 03 Aug 07:43:38 07:48:11 49° 261° (W) 07:52:43 437.345
PRISM 03 Aug 07:50:40 07:54:37 43° 73° (ENE) 07:58:36 437.425
BEESAT 2 03 Aug 08:21:28 08:24:02 16° 47° (NE) 08:26:41 435.950
SRMSAT 03 Aug 08:32:20 08:34:55 13° 187° (S) 08:37:28 437.500
PCSat 03 Aug 08:33:35 08:36:48 17° 106° (ESE) 08:40:18 145.827
CUTE-I 03 Aug 08:37:06 08:42:22 61° 286° (WNW) 08:47:34 437.470
RS-15 03 Aug 08:45:39 08:57:05 54° 248° (WSW) 09:08:42 29.354- 29.394
SO-50 03 Aug 08:50:04 08:53:10 18° 110° (ESE) 08:56:30 436.795
BEESAT 3 03 Aug 08:57:00 09:00:55 46° 56° (NE) 09:04:46 437.485
DOVE 4 03 Aug 09:05:17 09:07:12 13° 90° (E) 09:09:27 437.250
STRAND 1 03 Aug 09:09:25 09:13:37 24° 266° (W) 09:17:42 437.568
Cubesat XI-IV 03 Aug 09:22:42 09:26:55 24° 293° (WNW) 09:31:00 437.490
GOMX 1 03 Aug 09:26:09 09:30:24 35° 98° (E) 09:34:57 467.674
BRITE-PL 03 Aug 09:27:01 09:31:28 62° 100° (E) 09:36:17 437.365/2234.400
Cosmos 2499 03 Aug 09:27:38 09:34:54 57° 282° (WNW) 09:42:44 435.465 / 435.565
PRISM 03 Aug 09:28:07 09:30:18 13° 268° (W) 09:32:17 437.425
GONETS M04 03 Aug 09:28:12 09:33:06 15° 299° (WNW) 09:37:25
COMPASS 1 03 Aug 09:49:30 09:52:05 16° 92° (E) 09:54:50 437.405
HO-68 03 Aug 09:53:57 10:00:36 40° 98° (E) 10:07:19 435.675
BEESAT 2 03 Aug 09:58:28 10:02:20 44° 245° (WSW) 10:06:08 435.950
SEEDS 03 Aug 10:07:29 10:11:22 34° 97° (E) 10:15:15 437.485
AIST 2 03 Aug 10:09:13 10:13:15 46° 56° (NE) 10:17:14 435.215
M-CUBED/EXP-1 PRIME 03 Aug 10:11:06 10:15:00 48° 68° (ENE) 10:19:16 437.505
CUTE 1.7 + AOD 2 03 Aug 10:14:00 10:18:13 53° 99° (E) 10:22:24 437.475
PCSat 03 Aug 10:14:29 10:19:48 58° 300° (WNW) 10:25:10 145.827
CANX-2 03 Aug 10:22:42 10:27:02 77° 101° (E) 10:31:18 2200.000
UNISAT 6 03 Aug 10:25:49 10:27:26 12° 65° (ENE) 10:29:18 437.425
AAUSAT CUBESAT 2 03 Aug 10:27:46 10:31:42 38° 98° (E) 10:35:37 437.432
Oscar 11 03 Aug 10:28:14 10:31:00 17° 92° (E) 10:33:56 145.826/435.025
UWE-3 03 Aug 10:28:24 10:31:00 15° 91° (E) 10:33:49 435.000/436.395/437.385
SO-50 03 Aug 10:28:46 10:33:22 47° 306° (NW) 10:38:05 436.795
CINEMA 3 03 Aug 10:32:34 10:37:12 49° 99° (E) 10:41:59 145.822/145.860
BEESAT 3 03 Aug 10:36:36 10:38:28 13° 250° (WSW) 10:40:07 437.485
AUBIESAT-1 03 Aug 10:37:56 10:41:59 86° 72° (ENE) 10:46:25 437.475
DOVE 4 03 Aug 10:40:39 10:45:18 60° 284° (WNW) 10:50:13 437.250
